Dewpoint
33 31 30 31 32 31 30 25 23 23 24 19 23 28 45 49 48 47 47 48 50 50 49 48 47 46 46 46 45 45 44 43 43 42 40 39 41 43 45 45 42 43 45 46
33 31 32 33 33 32 29 25 23 23 23 22 28 36 44 47 47 48 48 45 44 43 44 45 45 44 44 44 43 43 44 43 43 42 40 39 41 44 45 43 40 41 42 43
29 30 33 31 29 29 26 24 24 23 25 24 25 34 38 42 46 45 44 43 43 43 43 43 43 43 43 42 42 40 39 40 41 41 44 44 42 43 42 40 40 41 43 43
27 28 27 28 28 27 25 26 26 25 25 22 25 24 39 39 39 41 42 45 44 43 43 42 43 42 41 41 42 39 40 42 42 42 42 41 40 41 40 40 41 41 42 43
28 31 30 28 28 28 26 28 25 26 24 26 26 34 38 40 37 38 38 40 43 43 43 43 43 42 41 41 41 40 43 45 43 43 43 41 39 40 41 42 41 41 43 44
32 32 30 30 30 27 28 26 27 29 26 22 26 33 36 40 37 41 41 41 39 41 41 42 44 44 43 41 40 40 45 43 42 43 42 41 41 42 42 42 43 44 45 44
29 29 29 30 28 28 29 27 24 24 25 22 36 34 36 43 42 42 43 41 39 40 40 41 42 43 44 41 39 40 44 43 41 41 41 42 43 45 44 44 43 41 41 41
27 28 33 28 28 25 33 29 26 24 26 28 36 33 36 42 46 44 43 38 38 38 39 41 41 42 43 42 40 40 43 43 41 43 45 43 42 40 40 39 37 38 37 36
31 31 33 32 33 30 31 31 32 32 32 28 33 36 36 43 45 43 37 37 37 37 39 40 40 40 39 39 41 43 43 43 43 39 38 37 36 34 32 32 32 32 31 28
34 29 34 33 33 35 30 35 28 31 26 26 32 33 33 39 41 44 37 36 36 37 39 39 39 38 38 38 38 38 40 38 37 34 31 30 30 31 30 29 28 28 28 29
37 31 33 35 35 34 35 34 36 33 31 26 24 28 37 37 40 43 37 36 36 37 38 38 37 37 37 36 36 36 35 33 31 29 29 28 29 28 28 28 27 27 28 28
42 36 32 35 39 40 38 36 36 30 29 29 27 28 35 39 41 41 37 36 37 38 37 37 37 36 35 34 32 31 31 29 29 28 28 27 26 26 26 26 26 27 26 28
38 35 29 32 36 36 36 39 37 35 33 31 27 29 37 42 42 41 36 36 37 37 36 36 36 35 35 33 30 28 28 27 27 26 25 25 25 24 24 24 25 26 26 26
40 35 31 28 30 34 34 37 37 34 27 29 30 29 34 40 39 37 36 37 36 35 35 34 34 34 33 31 28 27 26 26 25 25 24 24 23 23 23 24 23 25 26 24
37 28 34 35 36 35 36 36 35 34 32 29 31 33 33 38 38 38 37 36 34 33 33 33 32 32 28 26 27 25 25 25 24 24 23 23 22 23 23 22 23 24 24 22
38 31 34 27 34 34 33 34 34 34 34 33 32 32 35 36 38 35 35 33 32 32 32 31 31 27 23 22 24 24 23 25 24 23 23 22 22 22 22 22 22 21 21 21
36 34 30 29 34 30 26 28 29 32 33 32 31 32 35 36 35 33 32 31 31 31 31 30 30 25 21 21 23 23 24 26 23 22 21 21 22 21 22 21 19 19 19 20
36 34 30 28 30 20 29 32 33 32 31 32 31 32 34 34 33 31 30 30 30 31 30 30 28 22 21 21 20 23 25 24 22 21 20 21 21 19 21 19 18 19 19 19
38 34 30 27 26 29 30 29 29 29 27 35 32 32 31 32 30 30 31 32 32 31 32 31 27 23 20 19 19 23 23 22 20 19 19 19 20 20 19 18 18 18 19 20
36 36 33 29 25 23 27 32 34 31 27 35 34 33 32 31 27 30 34 34 33 33 31 28 23 19 19 19 20 19 18 18 17 18 20 19 20 20 18 18 19 19 20 18
31 33 32 28 27 30 32 31 33 25 28 36 34 33 33 31 33 33 34 32 32 31 25 22 17 15 15 16 19 16 16 16 17 19 19 20 19 18 17 18 19 19 18 18
32 32 31 29 30 28 36 35 31 32 36 36 34 34 34 33 35 34 32 31 27 20 15 15 14 12 12 14 16 14 14 16 16 16 16 17 18 16 16 18 19 18 18 18
31 32 31 31 31 35 37 34 36 37 36 37 35 35 35 35 34 34 32 31 24 14 7 9 9 11 13 13 14 13 14 15 15 14 14 15 16 16 17 17 18 19 18 18
36 36 33 34 35 36 37 37 39 40 38 38 36 35 36 35 35 34 32 30 24 15 3 6 10 12 14 15 14 15 16 16 15 13 13 14 16 18 17 17 18 18 18 18
34 36 34 32 34 36 37 37 37 41 40 39 37 36 36 36 35 34 33 31 27 16 4 8 11 14 15 16 17 17 17 15 12 12 12 15 16 16 16 16 18 19 18 18
37 34 32 32 35 35 35 37 40 40 40 40 38 37 37 36 36 35 34 32 24 14 8 10 14 15 16 16 16 17 16 14 11 9 13 17 18 17 16 15 16 19 17 18
Lifted_Index
5 4 4 3 3 3 3 3 2 2 3 3 2 0 -1 -2 -2 -2 -2 -2 -1 -0 1 2 3 4 4 4 4 5 5 5 6 6 7 8 9 9 8 8 9 10 10 11
4 4 4 3 3 3 3 2 2 2 2 2 2 1 -1 -2 -2 -2 -2 -1 0 1 2 3 4 4 5 5 5 5 5 5 6 7 8 9 10 9 8 8 9 10 10 11
5 4 4 3 3 3 3 2 2 2 2 2 2 1 -1 -2 -2 -2 -1 0 2 2 3 3 4 4 5 5 5 5 5 6 7 7 8 10 10 9 8 8 9 10 10 11
5 5 4 4 3 3 3 3 3 2 2 2 2 1 0 -1 -2 -2 -1 0 2 2 3 3 3 3 4 4 5 5 5 6 7 8 8 9 9 9 8 8 9 9 10 10
5 4 4 4 4 3 3 3 3 3 3 2 2 2 1 -0 -1 -1 -1 0 1 2 2 3 3 3 4 4 5 5 6 6 7 8 8 8 8 8 8 8 9 9 9 9
4 4 4 4 4 3 3 3 3 3 3 2 2 2 1 0 -0 -0 0 1 1 2 2 2 3 4 4 4 5 5 6 6 7 7 8 8 8 8 8 8 9 9 9 9
3 3 3 3 3 3 3 2 2 2 1 1 1 1 1 1 0 1 1 1 1 1 2 2 3 3 4 5 5 5 6 6 7 7 7 7 7 7 8 8 9 9 10 10
3 3 3 3 3 3 2 1 1 1 1 1 1 1 1 1 1 1 1 1 1 1 2 2 3 3 4 5 5 6 6 6 7 7 7 7 7 7 8 9 9 10 11 12
2 2 2 2 2 2 2 1 1 0 0 0 1 1 1 1 1 1 1 1 1 1 2 2 2 3 4 5 6 6 6 7 7 7 7 7 7 8 9 10 12 13 15 16
2 2 2 2 2 1 1 1 1 1 0 0 1 1 1 1 1 2 1 1 1 2 2 3 3 4 5 6 7 7 7 7 7 7 7 8 9 10 12 13 15 17 19 20
2 2 2 1 1 1 1 0 0 0 0 0 1 1 1 2 2 2 2 2 2 2 3 3 4 5 6 8 8 8 8 8 8 8 10 11 12 14 16 18 19 20 21 21
1 2 2 1 1 1 0 0 0 0 0 0 0 1 1 1 2 2 2 2 2 2 3 3 4 5 7 8 9 9 10 10 10 12 14 15 17 18 19 20 20 21 21 21
1 1 1 1 1 1 1 0 0 0 0 0 0 0 1 1 1 1 1 1 1 2 2 3 3 5 6 8 9 10 11 12 14 15 17 18 19 19 19 20 21 21 21 22
1 1 1 2 2 1 1 1 1 1 0 0 0 0 0 0 1 1 1 1 1 1 2 2 3 4 6 8 9 10 12 14 16 17 18 18 19 19 20 20 21 21 22 22
1 1 2 2 2 2 2 2 1 1 1 1 1 1 0 0 0 1 1 1 1 1 1 2 3 5 6 8 9 10 12 14 16 17 18 18 19 19 20 20 21 22 22 22
2 2 2 2 3 3 3 2 2 2 2 2 2 1 1 1 1 1 1 1 1 1 2 3 4 5 6 8 9 10 13 15 17 17 18 18 19 19 20 20 21 22 22 23
3 2 2 2 3 3 3 3 3 4 4 3 3 2 2 2 2 2 2 1 1 2 3 5 6 6 7 8 10 11 14 16 17 18 18 19 19 20 20 21 21 22 22 22
3 3 3 3 3 3 3 4 4 5 4 4 3 3 3 3 2 2 2 2 3 4 5 6 6 7 8 9 10 12 15 17 18 18 19 19 19 20 20 21 21 22 22 22
3 3 3 3 3 3 4 4 5 5 4 4 3 3 3 3 3 2 3 4 5 5 6 6 7 8 8 10 11 14 16 18 18 18 19 19 20 20 21 21 22 22 22 22
3 3 3 3 3 4 4 4 5 5 4 4 3 3 3 3 3 3 4 5 6 6 6 7 7 8 9 10 12 15 16 18 18 19 19 20 20 21 21 21 22 22 22 22
3 3 3 4 4 4 4 4 5 4 4 4 3 3 3 3 3 4 5 6 6 6 6 7 7 8 9 11 13 15 17 18 18 19 19 20 21 21 21 22 22 22 22 22
4 4 4 4 4 4 4 5 5 4 4 4 4 4 4 4 4 4 5 6 6 6 6 7 7 8 10 12 14 15 17 18 19 19 20 20 21 21 21 22 22 22 22 22
5 4 4 4 4 4 4 5 4 4 4 4 4 4 4 4 4 4 4 5 5 6 7 7 8 9 11 13 15 16 17 18 19 19 20 20 21 21 21 21 22 22 22 21
5 5 4 4 4 4 4 4 4 4 4 4 3 3 3 3 3 4 4 4 4 6 7 7 8 9 11 13 15 16 18 18 19 19 20 20 20 21 21 21 22 22 22 22
5 5 4 4 4 4 4 4 4 4 4 3 3 3 3 3 3 3 3 3 4 6 7 8 8 9 11 13 15 17 18 19 19 19 20 20 20 21 21 21 22 22 23 23
5 5 4 4 4 4 3 3 3 3 3 3 3 3 3 3 3 3 3 3 4 6 7 8 8 9 11 13 15 17 18 19 19 19 19 20 20 21 21 21 21 23 23 23